Location: Grunertshofen
(48.1867°N, 11.0866°E)
Time: 22:10:25
(UTC+00:00)

Daily predictions for brighter satellites

Satellite Brightness Start Highest point End
(mag) Time Altitude Azimuth Time Altitude Azimuth Time Altitude Azimuth
Cosmos 2098 Rocket 3.5 15:50:02 10° SSE 15:54:00 43° E 15:58:40 10° NNE
Cosmos 2208 Rocket 4.0 15:48:58 10° NNW 15:54:09 77° ENE 15:59:20 10° SSE
NOSS 2-2 (E) 2.7 15:51:45 10° SW 15:55:08 78° SE 15:58:10 10° NE
Cosmos 724 4.3 15:51:33 10° NW 15:57:38 74° NE 16:03:32 10° SE
Meteor 1-20 Rocket 4.5 15:53:39 10° N 15:58:51 44° ENE 16:04:03 10° SE
CZ-4C R/B 3.0 15:53:42 10° NW 16:00:28 67° NE 16:08:56 10° SE
Cosmos 2266 Rocket 4.2 15:56:00 10° N 16:01:53 45° ENE 16:07:39 10° SE
Cosmos 405 Rocket 2.7 16:00:21 10° NNW 16:03:35 67° W 16:06:46 10° S
CBERS-1 4.0 15:59:14 10° SSE 16:04:19 77° ENE 16:09:27 10° NNW
SMAP 3.3 16:01:22 10° SE 16:05:47 46° ENE 16:10:15 10° N
Cosmos 2297 Rocket 2.2 16:04:04 10° NNW 16:09:47 85° ENE 16:15:27 10° SSE
Landsat 7 4.2 16:06:18 10° SE 16:10:38 40° ENE 16:14:59 10° N
Cosmos 1626 Rocket 3.8 16:10:08 10° NNW 16:14:28 74° W 16:18:44 10° S
Meteor 1-28 Rocket 2.8 16:11:52 10° NNE 16:15:14 71° ESE 16:18:33 10° S
NOSS 2-2 (C) 4.4 16:14:05 10° W 16:16:45 25° NW 16:19:20 10° NNE
Cosmos 1606 Rocket 4.2 16:19:19 10° SSE 16:23:19 35° E 16:27:22 10° NNE
BlueWalker 3 4.4 16:20:50 10° W 16:23:46 23° SW 16:26:41 10° S
ATLAS CENTAUR R/B 3.0 16:23:14 10° WNW 16:26:04 28° WSW 16:28:48 10° S
Thor Agena Rocket 3.5 16:21:32 10° SSE 16:26:45 87° ENE 16:31:56 10° NNW
Cosmos 1503 Rocket 4.0 16:22:36 10° S 16:27:47 67° ESE 16:32:57 10° NNE
Cosmos 2219 4.1 16:24:33 10° NNW 16:29:28 28° NE 16:34:23 10° ESE
CENTAUR R/B 3.7 16:24:17 10° W 16:29:52 37° NNW 16:36:48 10° NE
Cosmos 1484 Rocket 3.8 16:28:08 10° S 16:31:31 44° W 16:34:53 10° NNW
Cosmos 1544 Rocket 4.1 16:28:09 10° SSW 16:32:31 63° WNW 16:36:56 10° N
USA 290 3.3 16:30:20 10° NNW 16:33:30 49° WSW 16:36:39 10° S
SL-16 R/B 2.8 16:27:24 10° NNE 16:33:37 72° WNW 16:39:46 10° SSW
AQUARIUS 4.3 16:29:32 10° SE 16:33:46 48° ENE 16:38:02 10° N
GEOS 3 Rocket 3.7 16:28:51 11° NE 16:34:01 71° SE 16:39:22 10° SSW
Cosmos 1980 Rocket 3.2 16:30:11 10° SSE 16:34:45 26° ESE 16:37:57 16° ENE
NOSS 2-3 (C) 4.4 16:32:43 10° S 16:35:29 22° ESE 16:36:50 18° E
Lacrosse 5 rocket 2.7 16:32:26 10° WNW 16:35:29 23° NNW 16:37:41 14° NNE
Cosmos 1844 Rocket 4.3 16:33:12 10° N 16:36:13 14° NNE 16:37:20 14° NE
Cosmos 1354 Rocket 4.1 16:32:17 10° S 16:37:25 57° ESE 16:42:34 10° NNE
Meteor 1-25 Rocket 4.2 16:33:42 10° N 16:39:32 72° ENE 16:45:17 10° SSE
Meteor 1-5 Rocket 4.3 16:34:25 10° N 16:39:36 47° ENE 16:44:51 10° SSE
Lacrosse 4 Rocket 3.8 16:37:58 10° WNW 16:40:02 14° NW 16:42:06 10° N
BREEZE M DEB (TANK) 2.2 16:38:02 10° SW 16:40:26 42° SSE 16:41:17 25° E
CORIOLIS 4.2 16:35:39 10° SSE 16:40:59 82° WSW 16:46:22 10° NNW
Cosmos 1777 Rocket 4.1 16:38:45 10° SSW 16:44:00 80° WNW 16:49:17 10° NNE
IRIDIUM 104 4.3 16:38:58 10° N 16:44:14 90° SSE 16:49:27 10° S
Cosmos 2263 Rocket 2.5 16:39:15 10° NNW 16:44:42 46° NE 16:50:09 10° SE
Cosmos 1726 Rocket 3.9 16:42:45 10° SSE 16:47:12 47° E 16:51:36 10° NNE
CZ-2D R/B 2.5 16:44:36 10° SSE 16:47:43 77° ENE 16:50:52 10° N
USA 238 DEB 4.1 16:44:27 10° S 16:49:57 37° ESE 16:53:47 20° ENE
USA 238 4.1 16:44:34 10° S 16:50:04 37° ESE 16:53:52 20° ENE
Okean 1-7 Rocket 3.6 16:47:06 10° N 16:51:30 84° W 16:55:52 10° S
ERS-1 4.4 16:48:15 10° SSE 16:53:15 79° ENE 16:58:15 10° NNW
Cosmos 1602 Rocket 4.3 16:49:06 10° NNW 16:53:23 55° W 16:57:37 10° S
Cosmos 1461 3.1 16:51:59 10° SW 16:55:50 60° NW 16:58:30 19° NNE
Cosmos 1933 3.1 16:53:28 10° S 16:57:17 88° ESE 17:01:09 10° N
USA 215 3.9 16:53:50 19° ENE 16:58:03 41° N 17:04:07 10° WNW
IRS-1C 4.2 16:53:39 10° SSE 16:58:58 80° WSW 17:04:19 10° NNW
YAOGAN 1 3.1 16:55:55 10° SE 16:59:46 34° ENE 17:03:39 10° N
Cosmos-2242 3.8 16:56:24 10° SSE 17:00:00 28° E 17:00:12 27° E
SKYMED 2 4.0 16:58:49 21° NE 17:01:13 40° E 17:05:18 10° SSE
Cosmos 2227 Rocket 2.2 16:55:32 10° NNW 17:01:13 87° WSW 17:06:52 10° SSE
BREEZE-M DEB (TANK) 3.9 16:58:09 10° SSW 17:01:35 22° SSE 17:02:21 20° SE
NOSS 2-3 (E) 3.3 16:58:44 10° SSW 17:02:18 55° SE 17:03:39 34° ENE
NOSS 2-3 (D) 3.4 16:59:24 10° SSW 17:02:59 51° SE 17:04:14 34° ENE
SJ-12 3.9 17:00:06 10° S 17:03:51 71° WSW 17:07:39 10° NNW
Cosmos 2151 4.4 17:03:34 10° NNW 17:07:26 39° W 17:11:19 10° SSW
Cosmos 1655 Rocket 3.9 17:07:14 10° N 17:13:31 81° E 17:19:44 10° SSE
Meteor 2-10 4.1 17:09:22 10° N 17:14:42 58° ENE 17:20:09 10° SSE
Cosmos 1697 Rocket 2.7 17:09:12 10° SSW 17:14:48 79° WNW 17:19:15 17° NNE
Cosmos 990 Rocket 3.9 17:09:56 10° SSW 17:15:04 84° WNW 17:19:09 17° NNE
CZ-4 R/B 4.2 17:11:21 10° SSE 17:15:16 75° ENE 17:19:14 10° N
Cosmos 1867 4.4 17:10:51 10° NW 17:16:09 52° WSW 17:21:23 10° SSE
MOS 1 Rocket 3.7 17:11:41 10° S 17:16:35 73° WSW 17:21:48 10° NNW
Cosmos 1953 Rocket 3.4 17:12:50 10° N 17:17:18 79° E 17:21:45 10° SSE
Aureole 1 Rocket 3.5 17:13:05 10° S 17:17:22 50° ESE 17:19:37 30° NE
ARIANE 5 R/B 3.5 17:19:09 10° S 17:24:01 48° W 17:29:00 10° NNW
Cosmos 1825 Rocket 4.5 17:22:21 10° NNW 17:26:34 49° W 17:30:42 10° SSW
COSMOS 2455 4.2 17:26:26 10° SSE 17:29:38 22° SE 17:29:38 22° SE
NOAA 6 4.0 17:26:29 10° SE 17:31:25 53° ENE 17:36:23 10° N
Cosmos 1680 Rocket 4.3 17:28:01 10° N 17:31:46 32° NNE 17:31:46 32° NNE
USA 81 3.9 17:29:04 10° N 17:34:22 83° E 17:39:38 10° S
CZ-2D R/B 3.4 17:31:04 10° SSE 17:35:16 88° WSW 17:39:27 10° NNW
Radarsat Rocket 4.5 17:28:40 10° SSE 17:36:47 76° ENE 17:44:01 10° NNW
IRAS Rocket 4.1 17:32:19 10° SSE 17:37:45 71° ENE 17:43:13 10° NNW
Meteor 2-2 Rocket 4.1 17:33:38 10° S 17:39:11 63° E 17:41:51 31° NNE
Gbstr 26 Del rocket 2.5 17:35:36 10° WSW 17:39:35 80° NNW 17:39:37 80° N
NOSS 3-2 (C) 4.0 17:35:01 10° WSW 17:40:01 45° NW 17:43:16 24° NNE
SPOT 1/Viking Rocket 3.8 17:35:47 10° S 17:40:58 70° WSW 17:46:11 10° NNW
PSLV R/B 3.2 17:38:55 10° SSE 17:43:07 77° NNE 17:47:00 10° NNW
Cosmos 1076 Rocket 4.4 17:40:29 10° NNW 17:44:38 49° W 17:48:48 10° SSW
SL-19 R/B 4.1 17:41:09 10° SSE 17:46:32 85° ENE 17:52:15 10° NNW
Cosmos 2082 3.6 17:42:47 10° NNW 17:48:32 73° ENE 17:50:41 39° SE
COSMO-SKYMED 1 2.4 17:49:12 71° S 17:49:12 71° S 17:52:55 10° SSW
CZ-4C R/B 4.3 17:42:07 10° NW 17:48:48 40° WSW 17:56:43 10° S
Cosmos 2058 Rocket 3.0 17:45:10 10° S 17:49:39 84° WNW 17:50:44 52° N
SL-16 R/B 4.4 17:55:47 10° SSE 17:56:09 12° SSE 17:56:09 12° SSE
Meteor 2-11 Rocket 4.3 17:54:39 10° N 18:00:50 71° E 18:06:57 10° SSE
Nadezhda 2 Rocket 4.3 17:56:23 10° N 18:02:32 88° W 18:08:38 10° S
Meteor 1-26 Rocket 4.1 17:58:09 10° SSW 18:03:35 82° WNW 18:05:35 40° N
Cosmos 1553 Rocket 3.9 18:04:41 10° S 18:10:50 88° W 18:14:51 24° N
Lacrosse 5 rocket 3.7 18:10:29 10° NW 18:11:16 14° NW 18:11:16 14° NW
Cosmos 2219 3.6 18:08:21 10° NNW 18:14:02 63° WSW 18:17:57 20° S
Cosmos 1980 Rocket 2.6 18:12:46 10° SW 18:18:20 58° WNW 18:19:44 45° N
Cosmos 1844 Rocket 3.8 18:15:53 10° NNW 18:18:59 31° N 18:18:59 31° N
CENTAUR R/B 4.2 18:17:06 10° NW 18:22:44 25° N 18:24:02 24° NNE
Cosmos 2263 Rocket 3.7 18:23:25 10° NW 18:28:28 34° WSW 18:33:29 10° SSW
Cosmos 1898 Rocket 4.0 18:25:16 10° SW 18:30:11 55° WNW 18:30:11 55° WNW
Cosmos 2369 3.9 18:25:30 10° SSW 18:30:42 70° WSW 18:30:42 70° WSW
USA 215 3.6 18:41:10 54° N 18:41:10 54° N 18:46:49 10° NW
USA 238 DEB 4.0 18:34:31 10° WSW 18:40:35 56° NW 18:41:14 53° NNW
USA 238 3.9 18:34:36 10° WSW 18:40:42 56° NW 18:41:20 54° NNW
